Location: Shenandoah County Park
(38.9356°N, 78.4524°W)
Time: 05:12:15
(UTC-04:00)

Explorer 11/Cluster Stage 4 - Pass Details

Date: 01 March 2024
Orbit: 465 x 1220 km, 28.8° (Epoch: 12 April)

Event Time Altitude Azimuth Distance (km) Brightness Sun altitude
Rises 01:36:29 0° 258° (WSW) 4,091 - -54.7°
Reaches altitude 10° 01:39:32 10° 250° (WSW) 3,157 - -54.4°
Maximum altitude 01:46:49 38° 186° (S) 1,742 - -53.6°
Drops below altitude 10° 01:53:47 10° 121° (ESE) 3,016 - -52.8°
Sets 01:56:39 0° 114° (ESE) 3,891 - -52.4°
